GW7862 Weather Reports


time (UTC)temp
C
wind
direction
speed
KPH
gust
KPH
rain 1hr
cm
rain 24hr
cm
rain mn
cm
humidity
%
barometer
mb
20260901122024 22 126 0.0 3.2 0.05 0.05 0.05 90 1016.3
20260901121549 22 0 0.0 1.6 0.05 0.05 0.05 90 1016.2
20260901121027 22 111 0.0 1.6 0.05 0.05 0.05 90 1016.3
20260901120525 22 0 0.0 1.6 0.05 0.05 0.05 90 1016.3
20260901120048 22 0 0.0 1.6 0.03 0.03 0.03 90 1016.3
20260901115523 22 0 0.0 1.6 0.03 0.03 0.03 90 1016.6
20260901115024 22 0 0.0 3.2 0.00 0.00 0.00 89 1016.5
20260901114543 22 0 0.0 3.2 0.00 0.00 0.00 89 1016.2
20260901114025 22 0 0.0 3.2 0.00 0.00 0.00 89 1016.2
20260901113525 22 0 0.0 3.2 0.00 0.00 0.00 90 1016.3
20260901113053 22 0 0.0 3.2 0.00 0.00 0.00 90 1016.4
20260901112526 22 0 0.0 4.8 0.00 0.00 0.00 90 1016.4
20260901112028 22 104 1.6 4.8 0.00 0.00 0.00 90 1016.5
20260901111552 22 0 0.0 3.2 0.00 0.00 0.00 90 1016.4
20260901111023 22 0 0.0 3.2 0.00 0.00 0.00 90 1016.5
20260901110524 22 0 0.0 0.0 0.00 0.00 0.00 90 1016.5
20260901110049 22 0 0.0 0.0 0.00 0.00 0.00 90 1016.4
20260901105525 22 0 0.0 0.0 0.00 0.00 0.00 90 1016.2
20260901105023 22 0 0.0 0.0 0.00 0.00 0.00 89 1016.2
20260901104554 22 0 0.0 0.0 0.00 0.00 0.00 89 1016.3
20260901104024 22 0 0.0 0.0 0.00 0.00 0.00 89 1016.1
20260901103525 22 0 0.0 0.0 0.00 0.00 0.00 89 1016.1
20260901103042 22 0 0.0 0.0 0.00 0.00 0.00 89 1016.1
20260901102524 22 0 0.0 3.2 0.00 0.00 0.00 89 1016.1
20260901102025 22 0 0.0 3.2 0.00 0.00 0.00 89 1016.1
20260901101542 22 227 0.0 1.6 0.00 0.00 0.00 89 1016.1
20260901101023 22 0 0.0 1.6 0.00 0.00 0.00 89 1016.0
20260901100525 22 0 0.0 1.6 0.00 0.00 0.00 89 1016.1
20260901100052 22 0 0.0 3.2 0.00 0.00 0.00 89 1016.0
20260901095523 22 0 0.0 3.2 0.00 0.00 0.00 89 1016.0
20260901095025 22 0 0.0 3.2 0.00 0.00 0.00 89 1016.0
20260901094544 22 227 0.0 1.6 0.00 0.00 0.00 89 1015.9
20260901094025 22 0 0.0 4.8 0.00 0.00 0.00 89 1015.8
20260901093525 22 0 0.0 4.8 0.00 0.00 0.00 89 1015.8
20260901093042 22 0 0.0 0.0 0.00 0.00 0.00 89 1016.0
20260901092525 22 0 0.0 1.6 0.00 0.00 0.00 88 1016.0
20260901092024 22 0 0.0 3.2 0.00 0.00 0.00 88 1016.0
20260901091549 22 0 0.0 3.2 0.00 0.00 0.00 88 1016.1
20260901091023 22 0 0.0 0.0 0.00 0.00 0.00 88 1016.1
20260901090525 22 0 0.0 0.0 0.00 0.00 0.00 88 1016.2
20260901090043 22 0 0.0 0.0 0.00 0.00 0.00 88 1016.2
20260901085525 22 0 0.0 0.0 0.00 0.00 0.00 88 1016.1
20260901085023 22 0 0.0 0.0 0.00 0.00 0.00 88 1016.2
20260901084554 22 0 0.0 0.0 0.00 0.00 0.00 88 1016.2
20260901084024 22 0 0.0 1.6 0.00 0.00 0.00 88 1016.3
20260901083525 22 0 0.0 3.2 0.00 0.00 0.00 88 1016.3
20260901083042 22 0 0.0 3.2 0.00 0.00 0.00 88 1016.3
20260901082523 22 0 0.0 4.8 0.00 0.00 0.00 88 1016.3
20260901082024 22 0 0.0 4.8 0.00 0.00 0.00 88 1016.3
20260901081553 22 234 0.0 4.8 0.00 0.00 0.00 88 1016.3
20260901081024 22 0 0.0 4.8 0.00 0.00 0.00 88 1016.3
20260901080524 22 0 0.0 4.8 0.00 0.00 0.00 88 1016.2
20260901080053 22 198 0.0 1.6 0.00 0.00 0.00 88 1016.3
20260901075524 22 0 0.0 1.6 0.00 0.00 0.00 88 1016.3
20260901075024 22 0 0.0 1.6 0.00 0.00 0.00 88 1016.3
20260901074554 22 197 0.0 3.2 0.00 0.00 0.00 88 1016.2
20260901074027 22 0 0.0 4.8 0.00 0.00 0.00 88 1016.2
20260901073525 22 0 0.0 6.4 0.00 0.00 0.00 88 1016.2
20260901073041 22 196 1.6 9.7 0.00 0.00 0.00 88 1016.2
20260901072528 22 0 0.0 9.7 0.00 0.00 0.00 88 1016.2
20260901072025 22 209 3.2 9.7 0.00 0.00 0.00 87 1016.2
20260901071549 22 0 0.0 6.4 0.00 0.00 0.00 87 1016.5
20260901071024 22 197 1.6 9.7 0.00 0.00 0.00 87 1016.4
20260901070525 22 197 3.2 11.3 0.00 0.00 0.00 87 1016.4
20260901070046 22 0 0.0 11.3 0.00 0.00 0.00 87 1016.3
20260901065525 21 195 0.0 6.4 0.00 0.00 0.00 87 1016.2
20260901065027 21 165 3.2 8.0 0.00 0.00 0.00 87 1016.2
20260901064547 21 215 3.2 8.0 0.00 0.00 0.00 87 1016.3
20260901064023 21 188 0.0 8.0 0.00 0.00 0.00 87 1016.4
20260901063525 21 0 1.6 8.0 0.00 0.00 0.00 87 1016.4
20260901063057 21 0 1.6 8.0 0.00 0.00 0.00 87 1016.4
20260901062524 21 0 1.6 8.0 0.00 0.00 0.00 87 1016.4
20260901062025 21 225 3.2 8.0 0.00 0.00 0.00 87 1016.5
20260901061549 21 149 0.0 8.0 0.00 0.00 0.00 87 1016.6
20260901061025 21 0 1.6 4.8 0.00 0.00 0.00 87 1016.5
20260901060525 21 0 0.0 0.0 0.00 0.00 0.00 88 1016.7
20260901060041 21 0 0.0 0.0 0.00 0.00 0.00 87 1016.6
20260901055523 21 0 0.0 0.0 0.00 0.00 0.00 87 1016.8
20260901055026 21 0 0.0 0.0 0.00 0.00 0.00 87 1016.8
20260901054546 21 0 0.0 0.0 0.00 0.00 0.00 87 1016.9
20260901054024 21 0 0.0 4.8 0.00 0.00 0.00 87 1017.0
20260901053525 21 0 0.0 6.4 0.00 0.00 0.00 86 1016.8
20260901053052 21 209 0.0 6.4 0.00 0.00 0.00 86 1016.8
20260901052524 21 207 0.0 6.4 0.00 0.00 0.00 85 1016.9
20260901052025 21 201 0.0 8.0 0.00 0.00 0.00 85 1017.0
20260901051546 21 205 1.6 8.0 0.00 0.00 0.00 84 1017.0
20260901051024 22 205 0.0 9.7 0.00 0.00 0.00 83 1017.0
20260901050525 22 221 1.6 9.7 0.00 0.00 0.00 83 1017.0
20260901050046 22 217 0.0 8.0 0.00 0.00 0.00 83 1017.0
20260901045527 21 0 1.6 8.0 0.00 0.00 0.00 84 1017.0
20260901045024 21 213 0.0 4.8 0.00 0.00 0.00 83 1017.1
20260901044547 22 209 1.6 6.4 0.00 0.00 0.00 83 1017.1
20260901044024 22 0 1.6 8.0 0.00 0.00 0.00 83 1017.0
20260901043524 22 219 1.6 8.0 0.00 0.00 0.00 83 1017.0
20260901043051 22 153 1.6 6.4 0.00 0.00 0.00 83 1017.1
20260901042525 22 215 1.6 6.4 0.00 0.00 0.00 84 1017.0
20260901042025 22 0 1.6 9.7 0.00 0.00 0.00 83 1017.0
20260901041544 22 202 1.6 9.7 0.00 0.00 0.00 83 1017.2
20260901041025 22 155 1.6 9.7 0.00 0.00 0.00 83 1017.1
20260901040525 22 207 1.6 11.3 0.00 0.00 0.00 83 1017.1
20260901040042 22 214 3.2 11.3 0.00 0.00 0.00 83 1017.1
20260901035525 21 211 1.6 4.8 0.00 0.00 0.00 83 1017.0
20260901035027 22 0 0.0 8.0 0.00 0.00 0.00 83 1017.0
20260901034555 21 0 0.0 8.0 0.00 0.00 0.00 83 1017.0
20260901034024 22 0 1.6 4.8 0.00 0.00 0.00 83 1017.1
20260901033525 22 215 0.0 4.8 0.00 0.00 0.00 83 1017.1
20260901033105 22 214 1.6 4.8 0.00 0.00 0.00 83 1017.2
20260901032525 21 0 1.6 6.4 0.00 0.00 0.00 83 1017.2
20260901032024 21 233 0.0 6.4 0.00 0.00 0.00 84 1017.2
20260901031542 21 0 0.0 4.8 0.00 0.00 0.00 83 1017.2
20260901031025 21 0 0.0 4.8 0.00 0.00 0.00 84 1017.1
20260901030525 21 0 0.0 6.4 0.00 0.00 0.00 84 1017.3
20260901030040 21 204 1.6 6.4 0.00 0.00 0.00 84 1017.4
20260901025529 21 0 0.0 3.2 0.00 0.05 0.00 84 1017.5
20260901025029 21 0 0.0 3.2 0.00 0.05 0.00 83 1017.6
20260901024550 21 0 0.0 4.8 0.00 0.05 0.00 83 1017.6
20260901024026 22 0 0.0 6.4 0.00 0.05 0.00 82 1017.8
20260901023526 21 0 0.0 8.0 0.00 0.05 0.00 82 1017.7
20260901023052 21 221 1.6 9.7 0.00 0.05 0.00 83 1017.9
20260901022528 21 229 1.6 9.7 0.00 0.05 0.00 82 1017.8
20260901022027 21 0 0.0 0.0 0.00 0.05 0.00 83 1017.7
20260901021549 21 0 0.0 3.2 0.00 0.05 0.00 83 1017.8
20260901021024 21 0 0.0 3.2 0.00 0.05 0.00 82 1017.9
20260901020526 21 0 0.0 4.8 0.00 0.05 0.00 82 1017.7
20260901020043 21 0 0.0 4.8 0.00 0.05 0.00 83 1017.8
20260901015528 21 0 0.0 4.8 0.00 0.10 0.00 83 1017.8
20260901015024 21 0 0.0 0.0 0.00 0.10 0.00 83 1017.9
20260901014541 21 0 0.0 0.0 0.00 0.10 0.00 83 1017.9
20260901014024 21 0 0.0 0.0 0.00 0.10 0.00 83 1017.9
20260901013525 21 0 0.0 0.0 0.00 0.10 0.00 83 1017.9
20260901013045 21 0 0.0 0.0 0.00 0.10 0.00 83 1018.0
20260901012525 21 0 0.0 0.0 0.00 0.10 0.00 83 1017.9
20260901012024 21 0 0.0 0.0 0.00 0.10 0.00 83 1018.0
20260901011540 21 0 0.0 6.4 0.00 0.10 0.00 83 1018.1
20260901011025 21 0 0.0 6.4 0.00 0.10 0.00 82 1018.0
20260901010526 21 0 0.0 4.8 0.00 0.10 0.00 82 1018.0
20260901010053 21 0 0.0 1.6 0.00 0.10 0.00 82 1017.9
20260901005527 21 0 0.0 6.4 0.00 0.10 0.00 82 1017.9
20260901005025 21 0 0.0 6.4 0.00 0.10 0.00 82 1017.7
20260901004600 21 196 1.6 6.4 0.00 0.10 0.00 82 1017.8
20260901004024 21 219 1.6 6.4 0.00 0.10 0.00 82 1017.8
20260901003524 21 223 1.6 6.4 0.00 0.10 0.00 82 1017.9
20260901003046 21 0 0.0 4.8 0.00 0.10 0.00 82 1017.8
20260901002525 21 0 0.0 6.4 0.00 0.10 0.00 82 1017.9
20260901002025 21 0 1.6 6.4 0.00 0.10 0.00 81 1018.0
20260901001548 21 198 1.6 6.4 0.00 0.10 0.00 81 1017.9
20260901001025 21 0 0.0 3.2 0.00 0.10 0.00 82 1018.0
20260901000525 21 207 0.0 3.2 0.00 0.10 0.00 81 1018.0
20260831235524 21 0 0.0 4.8 0.00 0.10 0.00 81 1017.9
20260831235026 21 0 0.0 4.8 0.00 0.10 0.00 81 1018.0
20260831234540 21 0 0.0 4.8 0.00 0.10 0.00 81 1018.0
20260831234026 21 207 1.6 3.2 0.00 0.10 0.00 81 1018.1
20260831233524 21 0 0.0 3.2 0.00 0.10 0.00 81 1018.1
20260831233051 22 0 0.0 3.2 0.00 0.10 0.00 80 1018.1
20260831232526 22 0 0.0 1.6 0.00 0.10 0.00 80 1018.2
20260831232026 22 0 0.0 1.6 0.00 0.10 0.00 80 1018.1
20260831231546 21 0 0.0 1.6 0.00 0.10 0.00 79 1018.2
20260831231025 22 0 0.0 1.6 0.00 0.10 0.00 79 1018.2
20260831230525 22 0 0.0 1.6 0.00 0.10 0.00 80 1018.2
20260831230044 22 0 0.0 1.6 0.00 0.10 0.00 80 1018.2
20260831225525 22 205 0.0 4.8 0.00 0.10 0.00 79 1018.2
20260831225025 22 0 0.0 6.4 0.00 0.10 0.00 80 1018.2
20260831224542 22 0 0.0 6.4 0.00 0.10 0.00 78 1018.3
20260831224025 22 155 0.0 4.8 0.00 0.10 0.00 79 1018.2
20260831223527 22 0 0.0 4.8 0.00 0.10 0.00 79 1018.1
20260831223040 22 0 0.0 4.8 0.00 0.10 0.00 79 1018.2
20260831222524 22 0 0.0 3.2 0.00 0.10 0.00 78 1018.2
20260831222025 22 0 0.0 3.2 0.00 0.10 0.00 79 1018.1
20260831221547 22 0 0.0 3.2 0.00 0.10 0.00 79 1018.2
20260831221024 22 0 0.0 4.8 0.00 0.10 0.00 78 1018.4
20260831220525 22 0 0.0 4.8 0.00 0.10 0.00 77 1018.4
20260831220049 22 0 0.0 6.4 0.00 0.10 0.00 78 1018.3
20260831215525 22 0 0.0 6.4 0.00 0.10 0.00 78 1018.4
20260831215029 22 0 1.6 6.4 0.00 0.10 0.00 78 1018.3
20260831214545 22 0 0.0 4.8 0.00 0.10 0.00 76 1018.4
20260831214024 22 0 0.0 4.8 0.00 0.10 0.00 77 1018.3
20260831213525 22 242 0.0 8.0 0.00 0.10 0.00 78 1018.4
20260831213042 22 201 1.6 8.0 0.00 0.10 0.00 78 1018.5
20260831212525 22 185 0.0 8.0 0.00 0.10 0.00 78 1018.4
20260831212024 22 208 1.6 8.0 0.00 0.10 0.00 77 1018.6
20260831211548 22 0 0.0 4.8 0.00 0.10 0.00 76 1018.7
20260831211024 23 0 0.0 4.8 0.00 0.10 0.00 77 1018.7
20260831210524 23 0 0.0 6.4 0.00 0.10 0.00 75 1018.6
20260831210046 23 200 1.6 6.4 0.00 0.10 0.00 76 1018.8
20260831205524 23 0 0.0 6.4 0.00 0.10 0.00 79 1018.6
20260831205025 22 216 1.6 12.9 0.00 0.10 0.00 77 1018.6
20260831204544 22 0 1.6 12.9 0.00 0.10 0.00 77 1018.6
20260831204024 22 226 3.2 12.9 0.00 0.10 0.00 77 1018.6
20260831203524 22 212 0.0 9.7 0.00 0.10 0.00 77 1018.6
20260831203043 22 221 3.2 9.7 0.00 0.10 0.00 76 1018.7
20260831202525 22 192 1.6 9.7 0.00 0.10 0.00 76 1018.8
20260831202024 22 209 1.6 11.3 0.00 0.10 0.00 77 1018.8
20260831201547 22 0 1.6 11.3 0.00 0.10 0.00 77 1019.1
20260831201025 22 212 3.2 11.3 0.00 0.10 0.00 76 1019.1
20260831200524 22 192 1.6 8.0 0.00 0.10 0.00 76 1019.1
20260831200050 22 189 0.0 6.4 0.00 0.10 0.00 76 1019.3
20260831195524 22 194 0.0 8.0 0.00 0.10 0.00 77 1019.3
20260831195024 22 218 0.0 8.0 0.00 0.10 0.00 76 1019.4
20260831194555 22 215 3.2 9.7 0.00 0.10 0.00 76 1019.5
20260831194025 22 228 1.6 9.7 0.00 0.10 0.00 74 1019.5
20260831193525 22 217 0.0 6.4 0.00 0.10 0.00 74 1019.5
20260831193046 22 203 0.0 6.4 0.00 0.10 0.00 73 1019.5
20260831192526 22 225 1.6 8.0 0.00 0.10 0.00 71 1019.4
20260831192025 23 208 1.6 8.0 0.00 0.10 0.00 73 1019.5
20260831191549 23 0 1.6 9.7 0.00 0.10 0.00 72 1019.5
20260831191025 23 0 0.0 9.7 0.00 0.10 0.00 74 1019.7
20260831190524 23 196 1.6 9.7 0.00 0.10 0.00 70 1019.7
20260831190107 23 293 1.6 8.0 0.00 0.10 0.00 70 1019.7
20260831185525 23 0 3.2 8.0 0.00 0.10 0.00 70 1019.7
20260831185029 24 138 1.6 11.3 0.00 0.10 0.00 68 1019.6
20260831184543 23 215 1.6 11.3 0.00 0.10 0.00 72 1019.7
20260831184028 24 119 1.6 14.5 0.00 0.10 0.00 70 1019.6
20260831183527 24 209 1.6 14.5 0.00 0.10 0.00 69 1019.5
20260831183042 25 221 4.8 11.3 0.00 0.10 0.00 68 1019.6
20260831182525 26 223 1.6 8.0 0.00 0.10 0.00 65 1019.7
20260831182025 26 180 1.6 8.0 0.00 0.10 0.00 65 1019.7
20260831181550 25 245 1.6 8.0 0.00 0.10 0.00 68 1019.5